HAWK-A

Last updated on Fri Dec 29 2023 00:03:29 GMT+0000 (Coordinated Universal Time)

1 43765U 18099H 23362.15513518 .00004423 00000+0 34986-3 0 9992 2 43765 97.5357 59.9123 0009082 155.0385 205.1280 15.01094732276823
UTC large
Height (km)
Speed (km/s)
/
Latitude / Longitude
Inclination (degrees)
Orbital Period (minutes)
Azimuth
Elevation
Range (km)
Doppler Factor

Next 0 passes for location: London (51.5072 / 0.1276)

Sorry there are no passes over London.